SCP
0 0 0 0 0 0 0 0 0 0 0 0 0 0 0 0 0 0 0 0 0 0 0 0 0 0 0 0 0 0 0 0 0 0 0 0 0 0 0 0 0 0 0
0 0 0 0 0 0 0 0 0 0 0 0 0 0 0 0 0 0 0 0 0 0 0 0 0 0 0 0 0 0 0 0 0 0 0 0 0 0 0 0 0 0 0
0 0 0 0 0 0 0 0 0 0 0 0 0 0 0 0 0 0 0 0 0 0 0 0 0 0 0 0 0 0 0 0 0 0 0 0 0 0 0 0 0 0 0
0 0 0 0 0 0 0 0 0 0 0 0 0 0 0 0 0 0 0 0 0 0 0 0 0 0 0 0 0 0 0 0 0 0 0 0 0 0 0 0 0 0 0
0 0 0 0 0 0 0 0 0 0 0 0 0 0 0 0 0 0 0 0 0 0 0 0 0 0 0 0 0 0 0 0 0 0 0 0 0 0 0 0 0 0 0
0 0 0 0 0 0 0 0 0 0 0 0 0 0 0 0 0 0 0 0 0 0 0 0 0 0 0 0 0 0 0 0 0 0 0 0 0 0 0 0 0 0 0
0 0 0 0 0 0 0 0 0 0 0 0 0 0 0 0 0 0 0 0 0 0 0 0 0 0 0 0 0 0 0 0 0 0 0 0 0 0 0 0 0 0 0
0 0 0 0 0 0 0 0 0 0 0 0 0 0 0 0 0 0 0 0 0 0 0 0 0 0 0 0 0 0 0 0 0 0 0 0 0 0 0 0 0 0 0
0 0 0 0 0 0 0 0 0 0 0 0 0 0 0 0 0 0 0 0 0 0 0 0 0 0 0 0 0 0 0 0 0 0 0 0 0 0 0 0 0 0 0
0 0 0 0 0 0 0 0 0 0 0 0 0 0 0 0 0 0 0 0 0 0 0 0 0 0 0 0 0 0 0 0 0 0 0 0 0 0 0 0 0 0 0
0 0 0 0 0 0 0 0 0 0 0 0 0 0 0 0 0 0 0 0 0 0 0 0 0 0 0 0 0 0 0 0 0 0 0 0 0 0 0 0 0 0 0
0 0 0 0 0 0 0 0 0 0 0 0 0 0 0 0 0 0 0 0 0 0 0 0 0 0 0 0 0 0 0 0 0 0 0 0 0 0 0 0 0 0 0
0 0 0 0 0 0 0 0 0 0 0 0 0 0 0 0 0 0 0 0 0 0 0 0 0 0 0 0 0 0 0 0 0 0 0 0 0 0 0 0 0 0 0
0 0 0 0 0 0 0 0 0 0 0 0 0 0 0 0 0 0 0 0 0 0 0 0 0 0 0 0 0 0 0 0 0 0 0 0 0 0 0 0 0 0 0
0 0 0 0 0 0 0 0 0 0 0 0 0 0 0 0 0 0 0 0 0 0 0 0 0 0 0 0 0 0 0 0 0 0 0 0 0 0 0 0 0 0 0
0 0 0 0 0 0 0 0 0 0 0 0 0 0 0 0 0 0 0 0 0 0 0 0 0 0 0 0 0 0 0 0 0 0 0 0 0 0 0 0 0 0 0
0 0 0 0 0 0 0 0 0 0 0 0 0 0 0 0 0 0 0 0 0 0 0 0 0 0 0 0 0 0 0 0 0 0 0 0 0 0 0 0 0 0 0
0 0 0 0 0 0 0 0 0 0 0 0 0 0 0 0 0 0 0 0 0 0 0 0 0 0 0 0 0 0 0 0 0 0 0 0 0 0 0 0 0 0 0
0 0 0 0 0 0 0 0 0 0 0 0 0 0 0 0 0 0 0 0 0 0 0 0 0 0 0 0 0 0 0 0 0 0 0 0 0 0 0 0 0 0 0
0 0 0 0 0 0 0 0 0 0 0 0 0 0 0 0 0 0 0 0 0 0 0 0 0 0 0 0 0 0 0 0 0 0 0 0 0 0 0 0 0 0 0
0 0 0 0 0 0 0 0 0 0 0 0 0 0 0 0 0 0 0 0 0 0 0 0 0 0 0 0 0 0 0 0 0 0 0 0 0 0 0 0 0 0 0
0 0 0 0 0 0 0 0 0 0 0 0 0 0 0 0 0 0 0 0 0 0 0 0 0 0 0 0 0 0 0 0 0 0 0 0 0 0 0 0 0 0 0
0 0 0 0 0 0 0 0 0 0 0 0 0 0 0 0 0 0 0 0 0 0 0 0 0 0 0 0 0 0 0 0 0 0 0 0 0 0 0 0 0 0 0
0 0 0 0 0 0 0 0 0 0 0 0 0 0 0 0 0 0 0 0 0 0 0 0 0 0 0 0 0 0 0 0 0 0 0 0 0 0 0 0 0 0 0
0 0 0 0 0 0 0 0 0 0 0 0 0 0 0 0 0 0 0 0 0 0 0 0 0 0 0 0 0 0 0 0 0 0 0 0 0 0 0 0 0 0 0
0 0 0 0 0 0 0 0 0 0 0 0 0 0 0 0 0 0 0 0 0 0 0 0 0 0 0 0 0 0 0 0 0 0 0 0 0 0 0 0 0 0 0
Wind_Speed
13 13 13 13 12 10 9 9 9 9 9 10 11 12 13 14 14 15 16 16 17 18 19 19 20 20 21 21 21 22 22 23 23 22 21 21 23 24 24 24 23 17 25
15 14 15 14 12 11 10 9 9 9 9 10 10 11 12 13 13 14 15 16 16 17 18 18 19 19 20 20 20 21 21 21 21 20 19 18 20 23 24 24 24 18 24
16 14 16 15 13 12 11 10 9 9 9 9 10 11 11 12 12 13 14 14 15 16 16 17 18 18 19 19 19 20 20 20 19 18 17 14 15 22 23 23 23 23 24
15 13 14 16 14 13 11 10 9 9 9 9 9 10 10 11 11 12 13 13 14 15 15 16 16 17 17 18 18 19 19 18 17 15 11 12 13 20 22 22 22 23 23
14 13 14 16 15 13 12 11 10 9 9 9 9 9 9 10 10 11 11 12 12 13 14 14 15 16 16 17 18 18 18 17 15 13 11 11 12 19 22 22 22 22 22
15 14 15 16 15 14 12 11 10 9 9 9 8 8 9 9 9 10 10 11 11 12 13 13 14 15 16 16 17 18 18 16 12 10 11 11 12 19 21 22 22 22 22
15 14 14 17 15 14 13 12 11 10 9 9 8 7 8 8 8 8 9 9 10 10 11 12 13 14 14 15 16 17 17 16 11 10 10 10 15 22 22 22 22 22 22
15 13 12 17 16 15 14 13 11 11 10 9 8 7 7 7 7 7 7 8 8 9 10 11 11 12 13 14 15 16 16 15 10 10 10 10 18 22 22 22 22 22 22
14 13 11 14 15 15 14 13 12 11 10 10 9 8 7 6 6 6 6 7 7 7 8 9 10 11 12 13 14 14 14 13 11 8 10 9 19 21 21 22 22 22 22
14 14 13 13 13 13 13 14 13 12 11 11 10 8 7 6 6 5 4 6 6 6 7 8 8 9 9 11 12 12 11 9 10 9 7 11 20 21 21 21 22 22 22
15 15 14 14 13 12 11 13 13 13 12 11 10 10 7 5 5 4 5 4 5 5 5 6 7 7 6 6 9 10 7 6 9 7 7 15 19 20 21 21 22 22 23
21 19 15 15 14 13 10 9 9 9 10 9 8 9 6 5 4 3 5 4 4 3 3 4 4 4 4 4 5 6 5 8 6 6 7 16 18 20 20 21 21 22 23
20 19 17 16 15 14 10 9 7 6 7 8 9 9 6 5 5 4 4 4 4 3 1 1 1 2 3 4 4 5 6 6 5 5 7 14 17 19 19 20 20 21 22
20 21 19 18 15 15 12 10 9 7 7 7 9 10 7 5 5 5 4 4 3 2 2 2 1 2 3 4 5 6 6 5 5 5 7 13 16 17 18 19 20 20 21
21 21 20 19 18 15 13 10 10 9 9 9 8 10 10 7 6 6 5 4 4 3 3 2 2 3 4 4 5 6 7 7 8 8 6 11 14 16 17 18 19 20 21
22 22 21 21 20 17 14 12 11 10 9 9 9 11 12 8 7 6 6 5 5 4 3 3 3 3 4 4 6 7 8 8 8 9 8 9 13 15 16 17 19 20 21
22 21 22 21 20 19 17 15 11 10 10 10 10 12 13 11 9 8 7 6 6 5 5 4 4 4 4 5 7 8 7 9 9 10 10 8 8 11 14 16 17 19 20
20 21 21 17 20 20 17 15 11 11 11 10 10 10 14 13 12 9 8 7 7 6 6 5 5 5 5 6 6 6 7 8 11 11 10 9 8 8 10 14 17 19 20
21 21 21 21 21 21 19 14 13 12 12 11 10 10 13 14 14 11 8 8 8 7 6 6 6 6 6 6 7 7 8 9 9 10 11 11 10 10 9 12 16 18 19
19 20 20 21 21 19 16 13 12 13 12 11 11 12 14 13 15 13 9 10 10 8 8 7 8 7 6 6 7 8 9 10 9 9 10 9 9 11 11 11 11 12 17
19 20 21 21 21 18 15 14 14 14 12 12 12 15 16 15 16 14 10 11 11 10 10 10 8 9 7 6 7 8 9 10 9 8 8 8 10 11 11 12 10 10 10
21 21 21 22 21 21 16 14 12 12 12 13 12 14 17 17 17 14 15 12 12 10 12 11 10 8 7 6 6 6 6 6 7 7 8 9 10 10 11 12 12 12 12
20 22 19 22 22 22 19 13 11 10 9 11 14 14 17 18 18 17 17 15 13 13 11 13 12 12 9 8 8 6 6 5 4 6 9 9 10 9 10 11 13 14 14
18 17 19 20 21 20 20 18 20 16 17 17 14 13 16 19 19 19 18 18 15 13 13 13 13 11 11 9 8 9 9 7 6 6 6 8 10 12 12 11 12 14 15
14 15 16 18 19 20 21 21 21 20 17 13 14 16 17 17 20 20 19 18 17 14 15 14 13 14 11 11 9 8 9 9 10 9 10 9 9 10 10 12 12 12 14
11 13 15 17 19 20 21 22 24 24 21 19 18 16 15 13 15 21 20 18 17 15 16 15 14 15 13 13 10 9 9 8 8 9 11 12 12 11 12 11 12 12 12
Wind_Direction
162 159 159 150 143 136 125 113 101 92 84 78 73 69 65 61 59 55 53 52 50 49 47 46 45 44 44 44 45 45 42 36 32 28 27 25 22 25 26 24 20 19 18
155 159 160 153 148 141 132 121 110 99 90 83 77 72 68 63 60 56 54 52 50 49 47 45 44 43 43 43 43 44 42 36 33 29 26 23 20 22 24 22 20 17 16
155 158 158 156 152 146 138 130 119 108 98 89 82 76 71 65 61 58 55 53 51 49 47 44 42 42 42 41 42 43 43 36 33 29 27 22 15 18 21 21 18 16 14
157 161 158 155 155 150 145 138 128 118 107 97 89 82 76 68 64 60 57 54 51 49 46 44 41 39 40 39 39 40 41 35 31 28 27 20 12 14 18 18 16 14 12
161 162 155 158 158 155 151 144 136 126 116 106 96 89 82 73 67 63 58 55 51 49 46 44 41 37 37 37 36 36 36 32 27 28 25 18 11 10 15 15 13 11 9
164 163 160 163 163 160 156 151 145 136 126 116 106 97 90 81 72 67 62 57 52 48 45 43 41 37 34 33 33 32 31 28 22 25 20 14 8 6 9 11 10 8 6
167 167 166 167 167 166 163 159 153 145 136 127 118 108 98 89 79 73 67 60 54 48 45 42 40 36 31 31 31 29 27 22 20 20 16 10 4 2 5 6 5 3 2
170 171 170 172 173 172 170 166 162 155 147 138 129 119 108 98 89 78 73 66 56 49 44 41 40 35 29 28 28 26 22 17 12 15 12 6 1 358 360 0 360 358 357
176 178 179 178 177 178 176 174 170 164 157 149 140 129 117 107 97 83 76 71 61 50 45 41 39 36 27 26 25 22 17 11 9 10 5 1 355 353 354 355 354 352 351
185 187 185 185 180 180 179 179 176 172 167 159 148 139 127 117 110 99 95 79 68 52 46 42 38 35 27 23 22 19 11 360 8 3 1 354 350 348 348 348 347 346 345
194 194 192 189 183 182 182 179 180 178 175 168 159 152 153 158 148 143 98 89 79 58 46 41 36 28 18 21 20 12 3 1 356 355 352 347 343 342 341 341 340 339 338
196 196 194 194 188 186 183 182 185 181 175 182 173 168 176 174 161 148 123 109 94 72 55 38 29 9 348 359 11 1 358 352 349 344 342 341 337 335 334 334 333 333 332
196 195 197 197 193 191 187 187 184 182 180 187 188 183 182 179 170 182 175 164 164 175 184 144 268 350 352 358 346 349 347 341 334 330 329 332 329 327 325 325 325 325 325
199 198 197 198 197 198 195 193 193 190 189 189 191 191 188 188 193 189 197 190 195 198 212 247 297 326 329 334 332 330 327 321 317 315 313 317 317 316 315 315 316 317 318
202 201 200 199 199 199 200 200 200 199 196 194 191 194 196 195 196 193 197 198 204 206 216 236 263 292 301 309 308 308 306 304 300 298 296 299 303 304 305 307 310 312 314
205 203 200 200 201 200 201 202 202 202 199 199 195 197 199 201 199 197 200 203 207 210 220 237 257 276 285 288 290 291 291 291 286 285 284 288 287 291 295 299 303 307 309
206 203 201 201 202 203 205 207 205 203 200 201 200 199 199 203 202 200 205 205 206 206 215 228 238 255 268 273 276 281 283 282 280 279 278 277 279 278 281 289 296 301 304
206 204 203 199 203 205 206 207 207 206 204 204 202 201 201 203 203 203 207 208 202 204 214 223 233 244 250 262 272 277 276 274 274 274 272 268 269 273 276 281 289 295 300
206 203 203 201 203 205 206 207 210 209 209 208 204 204 203 204 204 206 210 208 202 206 212 218 227 236 249 256 267 274 273 270 271 270 266 264 262 265 271 279 283 287 292
206 204 204 202 205 204 204 208 211 215 214 212 209 208 205 204 204 207 211 210 204 208 211 213 222 226 242 257 268 271 269 268 266 263 264 261 258 261 267 275 281 282 286
205 205 204 203 204 201 200 204 207 211 212 213 214 212 208 206 204 207 209 208 207 211 213 215 220 228 230 235 257 265 260 254 255 255 256 259 261 263 267 271 275 279 285
205 205 205 205 203 203 204 204 210 214 217 216 214 216 213 209 207 206 210 208 207 212 214 214 215 223 227 220 238 269 276 251 224 241 254 259 264 267 268 272 275 278 282
209 208 206 206 205 205 203 203 205 212 220 215 215 215 214 212 209 208 210 211 209 210 212 211 210 216 224 218 220 238 260 277 295 252 254 258 263 266 270 274 275 277 280
215 211 211 210 208 206 202 206 205 207 215 217 215 215 213 212 212 210 210 211 210 210 213 211 210 213 221 226 218 224 236 255 269 285 257 254 260 265 268 272 276 277 278
217 213 213 213 212 209 207 210 213 221 226 225 219 219 216 212 212 211 211 209 211 211 212 211 208 211 214 223 224 222 230 240 237 247 273 278 272 267 271 275 277 277 278
218 213 212 214 216 212 211 213 217 223 225 225 222 218 216 214 212 212 210 210 210 210 210 210 211 213 215 220 225 228 230 234 238 244 261 274 281 281 281 278 275 275 274